When you browse on this site, cookies collect data to enhance your experience and personalize the content and advertising you see.
Visit our Privacy Policy to learn more. By continuing to use the site, you agree to this use of cookies and data.
  • En España
  • Lista de países
  • Para 7 días
  • Temperatura del agua
  • El tiempo en el mapa
  • Informadores
  • user-avatar
    Iniciar sesión

    Tiempo cada hora Hurghada

    Hoy, 21 Octubre, Lunes

    Tiempo Temperatura Precipitaciones Viento Presión Humedad
    00:00 +22°C° 0 mm 3 mps 684 mmHg 35%
    01:00 +21°C° 0 mm 3 mps 684 mmHg 35%
    02:00 +21°C° 0 mm 3 mps 683 mmHg 34%
    03:00 +21°C° 0 mm 3 mps 683 mmHg 35%
    04:00 +20°C° 0 mm 2 mps 683 mmHg 35%
    05:00 +20°C° 0 mm 2 mps 683 mmHg 36%
    06:00 +22°C° 0 mm 3 mps 684 mmHg 32%
    07:00 +25°C° 0 mm 3 mps 684 mmHg 27%
    08:00 +27°C° 0 mm 3 mps 685 mmHg 23%
    09:00 +28°C° 0 mm 3 mps 685 mmHg 22%
    10:00 +30°C° 0 mm 4 mps 685 mmHg 20%
    11:00 +32°C° 0 mm 4 mps 686 mmHg 18%
    12:00 +32°C° 0 mm 4 mps 685 mmHg 18%
    13:00 +33°C° 0 mm 4 mps 684 mmHg 18%
    14:00 +33°C° 0 mm 5 mps 684 mmHg 18%
    15:00 +30°C° 0 mm 4 mps 683 mmHg 22%
    16:00 +28°C° 0 mm 3 mps 683 mmHg 26%
    17:00 +26°C° 0 mm 2 mps 682 mmHg 30%
    18:00 +25°C° 0 mm 2 mps 682 mmHg 32%
    19:00 +24°C° 0 mm 2 mps 682 mmHg 33%
    20:00 +23°C° 0 mm 1 mps 682 mmHg 34%
    21:00 +22°C° 0 mm 1 mps 682 mmHg 35%
    22:00 +21°C° 0 mm 1 mps 681 mmHg 35%
    23:00 +21°C° 0 mm 1 mps 681 mmHg 35%

    Mañana, 22 Octubre, Martes

    Tiempo Temperatura Precipitaciones Viento Presión Humedad
    00:00 +20°C° 0 mm 1 mps 681 mmHg 36%
    01:00 +20°C° 0 mm 1 mps 680 mmHg 37%
    02:00 +20°C° 0 mm 1 mps 680 mmHg 38%
    03:00 +17°C° 0 mm 0 mps 680 mmHg 39%
    04:00 +17°C° 0 mm 0 mps 680 mmHg 40%
    05:00 +17°C° 0 mm 0 mps 680 mmHg 41%
    06:00 +19°C° 0 mm 0 mps 681 mmHg 36%
    07:00 +22°C° 0 mm 0 mps 682 mmHg 31%
    08:00 +26°C° 0 mm 1 mps 682 mmHg 26%
    09:00 +28°C° 0 mm 1 mps 683 mmHg 24%
    10:00 +29°C° 0 mm 2 mps 683 mmHg 22%
    11:00 +31°C° 0 mm 2 mps 683 mmHg 20%
    12:00 +31°C° 0 mm 3 mps 683 mmHg 20%
    13:00 +32°C° 0 mm 4 mps 682 mmHg 20%
    14:00 +32°C° 0 mm 5 mps 682 mmHg 21%
    15:00 +30°C° 0 mm 4 mps 681 mmHg 23%
    16:00 +28°C° 0 mm 4 mps 681 mmHg 25%
    17:00 +27°C° 0 mm 3 mps 681 mmHg 27%
    18:00 +25°C° 0 mm 3 mps 681 mmHg 31%
    19:00 +24°C° 0 mm 2 mps 681 mmHg 35%
    20:00 +22°C° 0 mm 1 mps 680 mmHg 39%
    21:00 +22°C° 0 mm 1 mps 680 mmHg 39%
    22:00 +21°C° 0 mm 1 mps 680 mmHg 40%
    23:00 +21°C° 0 mm 1 mps 680 mmHg 40%

    Pasado mañana, 23 Octubre, Miércoles

    Tiempo Temperatura Precipitaciones Viento Presión Humedad
    00:00 +21°C° 0 mm 1 mps 680 mmHg 42%
    01:00 +20°C° 0 mm 1 mps 680 mmHg 44%
    02:00 +19°C° 0 mm 2 mps 680 mmHg 46%
    03:00 +19°C° 0 mm 2 mps 680 mmHg 47%
    04:00 +18°C° 0 mm 2 mps 680 mmHg 47%
    05:00 +18°C° 0 mm 2 mps 680 mmHg 48%
    06:00 +20°C° 0 mm 2 mps 681 mmHg 43%
    07:00 +23°C° 0 mm 2 mps 682 mmHg 38%
    08:00 +24°C° 0 mm 2 mps 682 mmHg 33%
    09:00 +26°C° 0 mm 3 mps 683 mmHg 30%
    10:00 +27°C° 0 mm 3 mps 683 mmHg 27%
    11:00 +29°C° 0 mm 4 mps 683 mmHg 24%
    12:00 +29°C° 0 mm 4 mps 683 mmHg 24%
    13:00 +29°C° 0 mm 5 mps 682 mmHg 25%
    14:00 +29°C° 0 mm 5 mps 682 mmHg 26%
    15:00 +28°C° 0 mm 4 mps 682 mmHg 29%
    16:00 +26°C° 0 mm 4 mps 681 mmHg 31%
    17:00 +25°C° 0 mm 3 mps 681 mmHg 34%
    18:00 +23°C° 0 mm 2 mps 681 mmHg 41%
    19:00 +20°C° 0 mm 2 mps 681 mmHg 48%
    20:00 +20°C° 0 mm 1 mps 681 mmHg 55%
    21:00 +19°C° 0 mm 1 mps 681 mmHg 55%
    22:00 +19°C° 0 mm 1 mps 681 mmHg 55%
    23:00 +18°C° 0 mm 1 mps 681 mmHg 56%

    24 Octubre, Jueves

    Tiempo Temperatura Precipitaciones Viento Presión Humedad
    00:00 +18°C° 0 mm 1 mps 681 mmHg 56%
    01:00 +18°C° 0 mm 1 mps 680 mmHg 56%
    02:00 +16°C° 0 mm 1 mps 680 mmHg 57%
    03:00 +16°C° 0 mm 1 mps 680 mmHg 59%
    04:00 +16°C° 0 mm 1 mps 680 mmHg 60%
    05:00 +15°C° 0 mm 1 mps 680 mmHg 62%
    06:00 +18°C° 0 mm 1 mps 681 mmHg 55%
    07:00 +20°C° 0 mm 1 mps 682 mmHg 48%
    08:00 +21°C° 0 mm 2 mps 683 mmHg 42%
    09:00 +24°C° 0 mm 2 mps 683 mmHg 36%
    10:00 +25°C° 0 mm 2 mps 683 mmHg 30%
    11:00 +27°C° 0 mm 3 mps 683 mmHg 24%
    12:00 +27°C° 0 mm 3 mps 683 mmHg 24%
    13:00 +27°C° 0 mm 4 mps 682 mmHg 24%
    14:00 +27°C° 0 mm 4 mps 682 mmHg 24%
    15:00 +26°C° 0 mm 3 mps 682 mmHg 27%
    16:00 +24°C° 0 mm 3 mps 681 mmHg 31%
    17:00 +23°C° 0 mm 2 mps 681 mmHg 34%
    18:00 +20°C° 0 mm 2 mps 681 mmHg 38%
    19:00 +19°C° 0 mm 2 mps 681 mmHg 42%
    20:00 +17°C° 0 mm 2 mps 682 mmHg 46%
    21:00 +18°C° 0 mm 1 mps 681 mmHg 47%
    22:00 +16°C° 0 mm 1 mps 681 mmHg 47%
    23:00 +16°C° 0 mm 1 mps 681 mmHg 48%

    25 Octubre, Viernes

    Tiempo Temperatura Precipitaciones Viento Presión Humedad
    00:00 +16°C° 0 mm 1 mps 681 mmHg 49%
    01:00 +15°C° 0 mm 1 mps 681 mmHg 49%
    02:00 +15°C° 0 mm 1 mps 681 mmHg 50%
    03:00 +15°C° 0 mm 1 mps 681 mmHg 51%
    04:00 +15°C° 0 mm 1 mps 681 mmHg 53%
    05:00 +14°C° 0 mm 1 mps 681 mmHg 55%
    06:00 +17°C° 0 mm 2 mps 682 mmHg 48%
    07:00 +19°C° 0 mm 2 mps 683 mmHg 41%
    08:00 +21°C° 0 mm 2 mps 683 mmHg 34%
    09:00 +23°C° 0 mm 2 mps 684 mmHg 31%
    10:00 +24°C° 0 mm 3 mps 684 mmHg 27%
    11:00 +26°C° 0 mm 3 mps 684 mmHg 23%
    12:00 +26°C° 0 mm 3 mps 684 mmHg 23%
    13:00 +27°C° 0 mm 4 mps 683 mmHg 22%
    14:00 +27°C° 0 mm 4 mps 683 mmHg 21%
    15:00 +26°C° 0 mm 4 mps 683 mmHg 26%
    16:00 +23°C° 0 mm 4 mps 683 mmHg 31%
    17:00 +22°C° 0 mm 4 mps 682 mmHg 36%
    18:00 +20°C° 0 mm 3 mps 682 mmHg 40%
    19:00 +19°C° 0 mm 2 mps 682 mmHg 45%
    20:00 +18°C° 0 mm 1 mps 682 mmHg 49%
    21:00 +18°C° 0 mm 1 mps 682 mmHg 50%
    22:00 +17°C° 0 mm 2 mps 682 mmHg 50%
    23:00 +16°C° 0 mm 2 mps 682 mmHg 51%

    26 Octubre, Sábado

    Tiempo Temperatura Precipitaciones Viento Presión Humedad
    00:00 +16°C° 0 mm 2 mps 682 mmHg 53%
    01:00 +15°C° 0 mm 1 mps 682 mmHg 55%
    02:00 +15°C° 0 mm 1 mps 681 mmHg 57%
    03:00 +15°C° 0 mm 1 mps 681 mmHg 58%
    04:00 +15°C° 0 mm 1 mps 681 mmHg 59%
    05:00 +14°C° 0 mm 2 mps 681 mmHg 61%
    06:00 +16°C° 0 mm 2 mps 682 mmHg 54%
    07:00 +18°C° 0 mm 2 mps 683 mmHg 47%
    08:00 +20°C° 0 mm 2 mps 684 mmHg 41%
    09:00 +21°C° 0 mm 2 mps 684 mmHg 36%
    10:00 +24°C° 0 mm 2 mps 684 mmHg 32%
    11:00 +25°C° 0 mm 3 mps 685 mmHg 28%
    12:00 +26°C° 0 mm 3 mps 684 mmHg 27%
    13:00 +26°C° 0 mm 4 mps 684 mmHg 25%
    14:00 +27°C° 0 mm 4 mps 683 mmHg 24%
    15:00 +25°C° 0 mm 4 mps 683 mmHg 29%
    16:00 +24°C° 0 mm 3 mps 683 mmHg 34%
    17:00 +21°C° 0 mm 3 mps 682 mmHg 39%
    18:00 +20°C° 0 mm 3 mps 682 mmHg 42%
    19:00 +18°C° 0 mm 2 mps 682 mmHg 46%
    20:00 +17°C° 0 mm 2 mps 682 mmHg 49%
    21:00 +17°C° 0 mm 2 mps 682 mmHg 50%
    22:00 +16°C° 0 mm 2 mps 682 mmHg 52%
    23:00 +16°C° 0 mm 2 mps 682 mmHg 53%

    27 Octubre, Domingo

    Tiempo Temperatura Precipitaciones Viento Presión Humedad
    00:00 +16°C° 0 mm 2 mps 681 mmHg 55%
    01:00 +15°C° 0 mm 2 mps 681 mmHg 57%
    02:00 +15°C° 0 mm 2 mps 681 mmHg 59%
    03:00 +14°C° 0 mm 1 mps 681 mmHg 60%
    04:00 +14°C° 0 mm 1 mps 681 mmHg 62%
    05:00 +14°C° 0 mm 1 mps 681 mmHg 63%
    06:00 +16°C° 0 mm 2 mps 682 mmHg 56%
    07:00 +18°C° 0 mm 2 mps 682 mmHg 49%
    08:00 +20°C° 0 mm 2 mps 683 mmHg 42%
    09:00 +23°C° 0 mm 2 mps 684 mmHg 36%
    10:00 +25°C° 0 mm 3 mps 684 mmHg 31%
    11:00 +26°C° 0 mm 3 mps 684 mmHg 26%
    12:00 +27°C° 0 mm 3 mps 684 mmHg 25%
    13:00 +27°C° 0 mm 3 mps 683 mmHg 24%
    14:00 +28°C° 0 mm 4 mps 683 mmHg 23%
    15:00 +26°C° 0 mm 3 mps 682 mmHg 30%
    16:00 +24°C° 0 mm 3 mps 682 mmHg 38%
    17:00 +21°C° 0 mm 2 mps 681 mmHg 45%
    18:00 +20°C° 0 mm 2 mps 682 mmHg 49%
    19:00 +19°C° 0 mm 2 mps 682 mmHg 53%
    20:00 +18°C° 0 mm 2 mps 682 mmHg 57%
    21:00 +17°C° 0 mm 2 mps 682 mmHg 55%
    22:00 +17°C° 0 mm 2 mps 681 mmHg 53%
    23:00 +16°C° 0 mm 1 mps 681 mmHg 50%
    Mostrar más